Location: Asheville, NC
(35.6000°N, 82.5500°W)
Time: 20:28:20
(UTC-04:00)

FO-29 - Pass Details

Date: 16 March 2018
Orbit: 799 x 1322 km, 98.5° (Epoch: 20 June)

Event Time Altitude Azimuth Distance (km) Brightness Sun altitude
Rises 22:47:51 0° 357° (N) 4,086 13.1 -37.7°
Reaches altitude 10° 22:51:03 10° 343° (NNW) 3,190 12.6 -38.3°
Maximum altitude 22:56:23 22° 297° (WNW) 2,480 12.1 -39.2°
Drops below altitude 10° 23:01:57 10° 251° (WSW) 3,331 12.6 -40.1°
Sets 23:05:25 0° 237° (WSW) 4,313 13.1 -40.7°
